Location: Granada Hills
(34.2650°N, 118.5220°W)
Time: 03:12:25
(UTC-07:00)

deb Kosmos-1763 - Visible Passes

Search period start: 22 September 2014 00:00
Search period end: 02 October 2014 00:00
Orbit: 566 x 578 km, 74.0° (Epoch: 22 September)

Date Brightness Start Highest point End Pass type
(mag) Time Alt. Az. Time Alt. Az. Time Alt. Az.
25 Sep 7.7 05:40:06 10° SE 05:42:00 13° E 05:43:53 10° ENE visible
26 Sep 7.4 05:41:25 10° SE 05:44:23 19° E 05:47:22 10° NE visible
27 Sep 6.6 05:43:13 10° SSE 05:46:47 28° E 05:50:22 10° NE visible
28 Sep 5.7 05:45:16 10° S 05:49:11 43° ESE 05:53:09 10° NNE visible
29 Sep 4.8 05:47:30 10° S 05:51:36 67° ESE 05:55:45 10° NNE visible
30 Sep 4.3 05:49:54 10° SSW 05:54:02 80° WNW 05:58:14 10° NNE visible
01 Oct 4.5 05:52:27 10° SSW 05:56:29 52° WNW 06:00:35 10° N visible
